Flag for U.S.A. Weather past 2 weeks in Ocala, Florida, U.S.A.

Now
90 °F

Partly sunny.


Feels Like: 92 °F
Forecast: 67 / 87 °F
Wind: 8 mph from Northeast

Location: Ocala Municipal

Current Time: May 30, 2015 at 3:29:13 PM

Latest Report: May 30, 2015 at 2:50 PM


Visibility: 10 mi

Pressure: 30.05 "Hg

Humidity: 46%

Dew point: 66 °F

Location of OcalaLocation

Historic Weather in Ocala — Graph

°F

Ocala temperature yesterday

Maximum temperature yesterday: 88 °F (at 1:50 PM)
Minimum temperature yesterday: 63 °F (at 4:35 AM)
Average temperature yesterday: 73 °F

Past Weeks' High & Low Weather Summary

 TemperatureHumidityPressure
High93 °F (May 25, 3:50 PM)94% (May 16, 5:35 AM)30.27 "Hg (May 16, 5:35 AM)
Low63 °F (May 29, 4:35 AM)31% (May 28, 2:50 PM)29.93 "Hg (May 20, 6:50 PM)
Average76 °F73%30.13 "Hg
* Reported May 15 1:50 PM — May 30 1:50 PM, Ocala, Weather by CustomWeather, © 2015

Note: Actual official high and low records may vary slightly from our data, if they occured in-between our weather recording intervals... More about our weather records

Advertising

Ocala weather history for previous 24 hours

 ConditionsComfort  
Time TempWeatherWind HumidityBarometerVisibility
1:50 PM
Sat, May 30
88 °FScattered clouds.8 mph49%30.07 "Hg10 mi
12:50 PM88 °FScattered clouds.8 mph49%30.09 "Hg10 mi
11:50 AM84 °FPartly sunny.8 mph55%30.10 "Hg10 mi
10:50 AM82 °FPartly sunny.5 mph58%30.12 "Hg10 mi
9:50 AM81 °FScattered clouds.5 mph66%30.12 "Hg10 mi
8:50 AM72 °FSunny.No wind83%30.12 "Hg10 mi
7:50 AM72 °FSunny.No wind83%30.11 "Hg10 mi
6:50 AM66 °FClear.No wind94%30.11 "Hg8 mi
6:35 AM66 °FClear.5 mph94%30.10 "Hg9 mi
6:15 AM66 °FClear.5 mph94%30.09 "Hg8 mi
5:55 AM66 °FClear.5 mph94%30.09 "Hg10 mi
5:35 AM66 °FClear.3 mph94%30.09 "Hg10 mi
5:15 AM68 °FClear.3 mph88%30.08 "Hg10 mi
4:55 AM68 °FClear.No wind88%30.08 "Hg10 mi
4:35 AM66 °FClear.5 mph94%30.08 "Hg10 mi
4:15 AM68 °FClear.3 mph88%30.08 "Hg10 mi
3:55 AM70 °FPassing clouds.3 mph83%30.08 "Hg10 mi
3:35 AM70 °FOvercast.No wind83%30.08 "Hg10 mi
3:15 AM70 °FPassing clouds.No wind83%30.08 "Hg10 mi
2:55 AM68 °FPassing clouds.No wind88%30.08 "Hg10 mi
2:35 AM68 °FClear.No wind88%30.09 "Hg10 mi
2:15 AM68 °FClear.No wind83%30.10 "Hg10 mi
1:55 AM70 °FClear.No wind83%30.10 "Hg10 mi
1:35 AM70 °FClear.5 mph83%30.10 "Hg10 mi
1:15 AM70 °FClear.No wind83%30.11 "Hg10 mi
12:55 AM70 °FClear.3 mph83%30.11 "Hg10 mi
12:35 AM72 °FClear.No wind78%30.11 "Hg10 mi
12:15 AM72 °FClear.No wind78%30.12 "Hg10 mi
11:55 PM
Fri, May 29
73 °FClear.No wind74%30.12 "Hg10 mi
11:35 PM73 °FClear.No wind74%30.12 "Hg10 mi
10:55 PM75 °FClear.3 mph69%30.12 "Hg10 mi
10:35 PM75 °FClear.3 mph69%30.13 "Hg10 mi
10:15 PM77 °FClear.No wind65%30.12 "Hg10 mi
9:55 PM77 °FClear.6 mph65%30.11 "Hg10 mi
9:35 PM79 °FClear.6 mph61%30.10 "Hg10 mi
9:15 PM79 °FSunny.7 mph61%30.10 "Hg10 mi
8:55 PM79 °FSunny.6 mph61%30.09 "Hg10 mi
8:35 PM81 °FSunny.6 mph54%30.09 "Hg10 mi
8:15 PM81 °FSunny.5 mph54%30.08 "Hg10 mi
7:55 PM82 °FSunny.8 mph51%30.07 "Hg8 mi
6:50 PM84 °FScattered clouds.7 mph45%30.06 "Hg10 mi
5:50 PM88 °FScattered clouds.7 mph38%30.05 "Hg10 mi
4:50 PM88 °FScattered clouds.7 mph38%30.07 "Hg10 mi
3:50 PM88 °FScattered clouds.5 mph35%30.09 "Hg10 mi
Weather by CustomWeather, © 2015

See weather overviewHow to use our weather pages